Regional Weather Roundup
Issued by NWS

Home | Current Version | Previous Version | Text Only | Print | Product List | Glossary Off
Versions: 1 2 3 4 5 6 7 8 9 10 11 12 13 14 15 16 17 18 19 20 21 22 23 24 25 26 27 28 29 30 31 32 33 34 35 36 37 38 39 40 41 42 43 44 45 46 47 48 49 50

000
ASUS43 KMPX 311110
RWRMN
WEATHER ROUNDUP FOR MINNESOTA
NATIONAL WEATHER SERVICE TWIN CITIES/CHANHASSEN MN
600 AM CDT TUE MAY 31 2016


NOTE: "FAIR" INDICATES FEW OR NO CLOUDS BELOW 12,000 FEET WITH NO
SIGNIFICANT WEATHER AND/OR OBSTRUCTIONS TO VISIBILITY. N/A MEANS
CURRENT SKY AND/OR WEATHER CONDITIONS ARE NOT AVAILABLE.

MNZ060>063-068>070-311200-
   Twin Cities Metro

CITY           SKY/WX    TMP DP  RH WIND       PRES   REMARKS
TWIN CITIES    CLOUDY    66  57  72 S5        29.87S
ST PAUL        CLOUDY    65  57  75 S6        29.87S
CRYSTAL        CLOUDY    66  56  70 S5        29.85S
BLAINE         CLOUDY    66  59  77 CALM      29.86F
EDEN PRAIRIE   CLOUDY    66  57  72 S6        29.85S
SOUTH ST PAUL  CLOUDY    66  55  67 S5        29.87S
LAKE ELMO      CLOUDY    64  57  77 S5        29.88S
$$
MNZ001>005-007-008-013>017-022>024-027-028-311200-
   Northwest Minnesota

CITY           SKY/WX    TMP DP  RH WIND       PRES   REMARKS
BEMIDJI        LGT RAIN  54  53  96 E17G23    29.82S
HALLOCK        CLOUDY    61  55  82 E18       29.70R
ROSEAU         LGT RAIN  54  48  82 E18       29.80S
WARROAD        RAIN      54  50  87 E22       29.84S
THIEF RVR FALL CLOUDY    59  54  82 E16       29.74S
CROOKSTON      CLOUDY    61  59  94 S12       29.72R
FOSSTON        LGT RAIN  59  57  94 SE13G18   29.75R
DETROIT LAKES  CLOUDY    61  57  88 SE10      29.77R
MOORHEAD       DRIZZLE   61  57  88 S7        29.75S
PARK RAPIDS    CLOUDY    59  56  89 E16G24    29.79S
MAHNOMEN       CLOUDY    60  58  91 SW13      29.75R
$$
MNZ006-009>011-018-025>026-311200-
   North Central Minnesota

CITY           SKY/WX    TMP DP  RH WIND       PRES   REMARKS
BAUDETTE       LGT RAIN  53  50  89 E18       29.86S
FLAG ISLAND    RAIN      54  50  87 E10       29.88R
INTL FALLS     MOCLDY    54  46  74 SE17G26   29.92R
WASKISH        RAIN      54  50  87 E16       29.86S
BIG FORK       RAIN      50  46  87 SE8       29.91R
LONGVILLE      DRIZZLE   52  50  93 E8        29.85F
GRAND RAPIDS   LGT RAIN  48  47  96 NE8       29.91F
CRANE LAKE     CLOUDY    50  43  76 SE3       29.98S
ORR            CLOUDY    50  39  66 SE10G20   29.93R
COOK           CLOUDY    48  41  76 E8        29.96S
WALKER         LGT RAIN  53  51  92 E12G18    29.84S
$$
MNZ012-019>021-037-311200-
   Northeast Minnesota

CITY           SKY/WX    TMP DP  RH WIND       PRES   REMARKS
DULUTH         LGT RAIN  47  41  80 E20G28    29.97F
ELY            CLOUDY    48  39  71 E13G18    30.01S
HIBBING        LGT RAIN  46  43  89 E9G20     29.95F
EVELETH        DRIZZLE   48  37  66 E10G18    29.99R
DULUTH HARBOR  CLOUDY    45  43  93 NE24      29.99F
TWO HARBORS    CLOUDY    48  43  81 NE16G22   30.00S
SILVER BAY     CLOUDY    46  39  76 NE13G18   30.04F
GRAND MARAIS     N/A     43  40  89 NE10      30.10S
G MARAIS ARPRT CLOUDY    43  37  81 E9G21     30.09S
$$
MNZ029>031-032-039>041-046>048-054>057-064-311200-
   West Central Minnesota

CITY           SKY/WX    TMP DP  RH WIND       PRES   REMARKS
FERGUS FALLS   CLOUDY    63  61  94 S8        29.74R
WHEATON        CLOUDY    63  61  94 SW9       29.78S
MORRIS         CLOUDY    63  61  94 S14       29.78R
ALEXANDRIA     MOCLDY    60  58  92 SE5       29.79R
ELBOW LAKE     CLOUDY    60  59  94 S13       29.77S
WADENA         DRIZZLE   59  57  94 E6        29.77S
GLENWOOD       LGT RAIN  61  59  94 S6        29.80R
APPLETON       CLOUDY    64  61  88 S10       29.78S
ORTONVILLE     CLOUDY    61  55  82 W8        29.79R
MADISON        CLOUDY    61  57  88 W13       29.81R
WILLMAR        FAIR      61  61 100 SE7       29.81R
$$
MNZ033>034-036-042>043-049>051-058-059-311200-
   Central Minnesota

CITY           SKY/WX    TMP DP  RH WIND       PRES   REMARKS
ST CLOUD       LGT RAIN  62  61  96 E7        29.83F
SAUK CENTRE    DRIZZLE   60  59  97 SE8       29.79S
PAYNESVILLE    CLOUDY    61  61 100 SE8       29.80F
AITKIN         CLOUDY    54  46  76 E6        29.87F
PINE RIVER     LGT RAIN  54  54 100 E14       29.87F
BRAINERD       LGT RAIN  56  55  97 E8G16     29.84F
STAPLES        RAIN      61  59  94 E5        29.78F
LONG PRAIRIE   DRIZZLE   59  59 100 E8        29.79F
LITTLE FALLS   LGT RAIN  61  59  94 E6        29.82F
LITCHFIELD     DRIZZLE   63  63 100 SE3       29.82F
BUFFALO        LGT RAIN  62  58  87 E3        29.85F
MAPLE LAKE     CLOUDY    63  61  95 E6        29.84F
HUTCHINSON     LGT RAIN  63  61  96 SE6       29.84S
$$
MNZ037-044-045-052-053-311200-
   East Central Minnesota

CITY           SKY/WX    TMP DP  RH WIND       PRES   REMARKS
PRINCETON      LGT RAIN  64  61  88 CALM      29.86F
MORA           MOCLDY    55  52  88 E3        29.90S
CAMBRIDGE      LGT RAIN  66  55  68 CALM      29.85F
RUSH CITY      CLOUDY    60  54  80 NE3       29.89R
MOOSE LAKE     DRIZZLE   45  43  93 NE8       29.92S
HINCKLEY       PTSUNNY   52  50  93 NE6       29.91R
CLOQUET        CLOUDY    46  43  87 E15G21    29.94F
MCGREGOR       CLOUDY    48  46  93 E15G23    29.90F
$$
MNZ071>073-080-081-089-090-097-098-311200-
   Southwest Minnesota

CITY           SKY/WX    TMP DP  RH WIND       PRES   REMARKS
MONTEVIDEO     LGT RAIN  61  61 100 SW5       29.82R
GRANITE FALLS  CLOUDY    62  60  91 S5        29.82R
CANBY          CLOUDY    64  60  90 SW9       29.84R
MARSHALL       CLOUDY    63  60  90 W12       29.81R
REDWOOD FALLS  LGT RAIN  63  59  87 S15       29.79F
OLIVIA         CLOUDY    70  66  88 S12       29.78F
PIPESTONE      CLOUDY    61  59  94 W9        29.86R
WINDOM         LGT RAIN  63  61  94 SE10      29.83S
WORTHINGTON    CLOUDY    62  59  90 SW9       29.87R
JACKSON        DRIZZLE   61  57  88 S9        29.86S
TRACY          LGT RAIN  63  62  96 SW10      29.82S
SLAYTON        LGT RAIN  60  60  99 SW15      29.86R
$$
MNZ065>067-074>077-082>085-091>093-311200-
   South Central Minnesota

CITY           SKY/WX    TMP DP  RH WIND       PRES   REMARKS
MANKATO        CLOUDY    66  55  68 S10       29.85F
NEW ULM        LGT RAIN  63  61  94 S13       29.82F
ST JAMES       LGT RAIN  57  55  94 SE12      29.84F
FAIRMONT       CLOUDY    61  57  88 S9        29.86F
GLENCOE        CLOUDY    64  62  94 SE8       29.83F
FARIBAULT      CLOUDY    64  55  72 S2        29.88R
OWATONNA       CLOUDY    64  55  72 S9        29.87S
WASECA         LGT RAIN  63  55  77 SW13      29.89S
ALBERT LEA     LGT RAIN  63  57  82 S8        29.88S
$$
MNZ078>079-086>088-094>096-311200-
   Southeast Minnesota

CITY           SKY/WX    TMP DP  RH WIND       PRES   REMARKS
ROCHESTER      MOCLDY    62  56  80 S12       29.91R
RED WING       CLOUDY    68  54  60 SE5       29.87S
STANTON        CLOUDY    66  56  72 SE3       29.86S
DODGE CENTER   CLOUDY    63  55  77 S14       29.89S
WINONA         MOCLDY    63  59  88 SE7       29.91S
AUSTIN         CLOUDY    61  55  82 S6        29.89F
PRESTON        CLOUDY    62  54  74 SE6       29.92S
$$
ABBREVIATIONS USED IN REMARKS
   TC - TEMPERATURES IN CELSIUS
  WCI - WIND CHILL INDEX
   HX - HEAT INDEX
  VSB - VISIBILITY
$$




USA.gov is the U.S. government's official web portal to all federal, state and local government web resources and services.